Location: Northwest Suburban Astronomers
(42.1100°N, 88.0300°W)
Time: 00:46:40
(UTC-06:00)

Daily predictions for brighter satellites

Satellite Brightness Start Highest point End
(mag) Time Altitude Azimuth Time Altitude Azimuth Time Altitude Azimuth
SL-16 R/B 4.2 03:38:28 23° ENE 03:38:28 23° ENE 03:42:31 10° ESE
Cosmos 2322 Rocket 4.1 03:42:19 24° NE 03:42:19 24° NE 03:46:42 10° ESE
CZ-4C R/B 2.3 04:35:12 63° NNE 04:35:12 63° NNE 04:40:14 10° NE
Cosmos 2360 Rocket 4.0 04:33:48 16° N 04:37:17 27° NE 04:42:03 10° ESE
Cosmos 1980 Rocket 3.7 04:42:27 23° SSW 04:42:27 23° SSW 04:44:37 10° S
IDEFIX/ARIANE 42P 4.0 04:34:57 10° NNE 04:39:45 36° E 04:44:32 10° SSE
USA 267 3.1 04:38:31 10° NE 04:45:00 67° NW 04:45:49 61° WNW
Cosmos 1538 Rocket 4.3 04:49:49 52° N 04:49:49 52° N 04:53:53 10° NNE
SKYMED 2 4.1 04:46:11 10° SSE 04:50:26 57° ENE 04:51:24 45° NNE
Meteor 1-23 Rocket 4.0 04:49:24 50° N 04:50:56 89° W 04:56:29 10° S
Cosmos 1515 4.4 04:53:10 50° SE 04:53:10 50° SE 04:56:18 10° SSE
Cosmos 923 Rocket 4.5 04:52:10 10° S 04:57:19 60° ESE 05:02:28 10° NNE
APEX 4.4 04:57:24 21° SSE 04:59:18 40° ESE 05:03:14 10° NE
ATLAS 5 CENTAUR R/B 4.4 05:00:59 11° N 05:04:22 17° NNE 05:08:13 10° ENE
Nadezhda 4 Rocket 3.8 04:59:16 10° SSW 05:05:20 62° W 05:11:25 10° N
Cosmos 1184 Rocket 3.8 05:08:14 43° NE 05:08:43 47° ENE 05:11:57 10° SSE
SeaSat 1 2.4 05:05:42 10° NNE 05:10:34 59° WNW 05:11:23 51° W
CZ-2C R/B 3.1 05:07:49 10° NNE 05:12:30 51° E 05:17:01 10° S
Meteor 2-20 Rocket 4.4 05:07:13 10° SSW 05:13:10 54° WNW 05:19:08 10° N
Cosmos 1025 Rocket 2.9 05:13:21 38° N 05:15:00 89° WSW 05:19:17 10° S
PAYLOAD A 4.2 05:10:34 10° NNE 05:16:02 81° ESE 05:21:20 10° S
USA 234 3.3 05:13:15 10° SE 05:19:48 82° NE 05:23:43 27° NW
Cosmos 1975 3.6 05:15:59 10° S 05:19:50 52° E 05:23:44 10° NNE
Cosmos 2285 Rocket 4.1 05:14:57 10° SSW 05:21:15 77° ESE 05:27:33 10° NNE
SL-16 R/B 2.2 05:20:23 35° NW 05:22:35 59° WSW 05:28:07 10° S
Okean 1-7 Rocket 3.6 05:21:34 15° N 05:25:21 88° E 05:29:54 10° S
Cosmos 2322 Rocket 2.3 05:24:11 33° NW 05:26:34 56° WSW 05:32:06 10° S
Okean 2 3.3 05:25:29 43° NW 05:26:37 63° W 05:30:40 10° S
Cosmos 1743 3.5 05:33:52 10° S 05:37:34 52° E 05:41:18 10° NNE
COSMO-SKYMED 1 2.9 05:34:25 10° S 05:38:31 42° W 05:40:01 31° NW
EO 1 Del DPAF 3.6 05:36:46 10° S 05:40:23 42° W 05:41:18 35° WNW
COSMOS 2441 4.4 05:38:22 10° NNE 05:43:14 80° ESE 05:48:01 10° S
NOAA 6 4.3 05:39:36 10° N 05:44:27 44° WNW 05:49:19 10° SW
Cosmos 1484 Rocket 4.0 05:43:28 10° NNE 05:47:11 43° E 05:50:49 10° S
Cosmos 1092 Rocket 4.3 05:42:58 10° SW 05:48:42 41° WNW 05:54:30 10° N
Meteor 1-12 Rocket 4.3 05:44:20 10° S 05:50:02 85° E 05:55:43 10° N
Cosmos 1500 3.8 05:47:16 10° SW 05:50:44 32° WNW 05:54:15 10° NNW
MSX 3.7 05:47:38 10° NNE 05:53:24 81° WNW 05:59:08 10° SSW
ATLAS CENTAUR R/B 1.7 05:50:10 10° SSW 05:53:49 56° ESE 05:57:26 10° NE
Okean 1 Rocket 3.9 05:50:11 10° SW 05:53:55 27° WNW 05:57:44 10° NNW
Cosmos 2322 3.8 05:48:18 10° NNW 05:54:00 81° ENE 05:59:39 10° SSE
BREEZE-M DEB (TANK) 2.1 05:53:42 28° WSW 05:54:52 78° NNW 05:59:06 10° ENE
Cosmos 389 Rocket 2.4 05:53:29 10° S 05:57:06 85° W 06:00:42 10° N
Okean-O 3.3 05:53:20 10° N 05:57:14 31° WNW 06:01:08 10° SW
Cosmos 2026 Rocket 4.1 05:53:59 10° SSW 06:00:08 56° WNW 06:06:24 10° N
Cosmos 1833 4.1 05:54:42 10° SSW 06:00:15 69° WNW 06:05:52 10° NNE
Cosmos 1624 Rocket 4.2 05:57:05 10° NNW 06:02:27 76° ENE 06:07:46 10° SSE
GEOS 3 Rocket 4.5 05:58:02 10° NE 06:03:23 57° ESE 06:08:36 10° SSW
Cosmos 1680 Rocket 3.8 06:01:57 10° SW 06:06:53 43° WNW 06:11:53 10° N
Cosmos 1271 Rocket 2.5 06:05:38 10° SSW 06:09:23 80° W 06:13:09 10° N
Tiangong 1 3.9 06:08:34 10° S 06:09:31 11° SSE 06:10:28 10° SE
Cosmos 1553 Rocket 3.9 06:04:49 10° NNW 06:11:02 72° W 06:17:06 10° S
Cosmos 1655 Rocket 4.0 06:04:52 10° SSW 06:11:03 64° W 06:17:19 10° N
Cosmos 1340 Rocket 3.0 06:08:31 10° N 06:12:30 75° E 06:16:28 10° SSE
Cosmos 1892 Rocket 3.7 06:08:51 10° NNW 06:13:07 52° W 06:17:19 10° S
YAOGAN 1 4.3 06:09:28 10° NNE 06:13:31 37° E 06:17:31 10° SSE
Aureole 2 Rocket 2.9 06:10:22 10° N 06:13:37 53° ENE 06:16:34 10° SSE
IDEFIX/ARIANE 42P 3.3 06:14:46 10° N 06:19:14 29° WNW 06:23:40 10° SW
Cosmos 2360 Rocket 2.5 06:16:04 10° NW 06:21:30 48° WSW 06:26:53 10° S
Cosmos 1666 2.9 06:19:02 10° SSW 06:22:43 46° W 06:26:25 10° N
BREEZE-M DEB (TANK) 3.1 06:20:59 14° W 06:22:54 41° N 06:27:54 10° ENE
Cosmos 2333 Rocket 3.3 06:17:37 10° NNW 06:23:09 44° ENE 06:28:36 10° SE
CZ-4C R/B 3.6 06:20:27 13° WNW 06:23:50 20° NNW 06:28:19 10° NNE
Cosmos 1371 Rocket 4.1 06:19:53 10° NNW 06:24:59 56° WSW 06:30:02 10° S
Meteor 1-21 4.2 06:20:34 10° NNW 06:26:11 80° W 06:31:48 10° S
COSMOS 2428 2.8 06:20:37 10° NNW 06:26:23 83° ENE 06:32:07 10° SSE
USA 267 4.2 06:21:48 10° NE 06:27:17 30° NNW 06:32:46 10° WNW
Cosmos 2219 Rocket 2.8 06:24:09 10° NNW 06:29:44 57° ENE 06:35:19 10° SE
AQUARIUS 4.1 06:29:28 10° N 06:33:57 69° WNW 06:38:24 10° SSW
Cosmos 2333 4.3 06:28:58 10° NNW 06:34:47 87° WSW 06:40:32 10° SSE
Cosmos 2315 Rocket 4.5 06:30:08 10° N 06:36:20 66° E 06:42:31 10° SSE
Thor Agena Rocket 4.0 06:32:08 10° SSW 06:36:52 40° W 06:41:39 10° NNW
ERS-2 4.2 06:36:50 10° NNE 06:40:13 33° E 06:43:34 10° SSE
CZ-4 R/B 1.4 06:36:11 10° N 06:40:23 73° WNW 06:44:37 10° SSW
Cosmos 1602 Rocket 3.5 06:36:05 10° N 06:40:25 87° W 06:44:45 10° S
